GW4081 Weather Reports


Display with metric or nautical units.
time (UTC)temp
F
wind
direction
speed
MPH
gust
MPH
rain 1hr
in
rain 24hr
in
rain mn
in
humidity
%
barometer
mb
20260509160105 77 116 5.0 10.0 0.00 0.25 0.01 58 1011.0
20260509155605 76 144 5.0 10.0 0.00 0.25 0.01 60 1011.0
20260509155105 76 133 6.0 10.0 0.00 0.25 0.01 63 1010.9
20260509154605 75 116 6.0 9.0 0.00 0.25 0.01 66 1010.7
20260509154105 75 125 7.0 9.0 0.00 0.25 0.01 67 1010.8
20260509153605 74 97 5.0 9.0 0.00 0.25 0.01 69 1010.7
20260509153105 74 121 6.0 10.0 0.00 0.25 0.01 69 1010.7
20260509152104 73 141 3.0 9.0 0.00 0.25 0.01 74 1010.9
20260509151105 72 142 5.0 8.0 0.00 0.25 0.01 74 1010.8
20260509150605 72 119 3.0 7.0 0.00 0.25 0.01 76 1010.8
20260509150105 72 152 3.0 6.0 0.00 0.25 0.01 78 1010.8
20260509145605 71 96 3.0 7.0 0.00 0.25 0.01 80 1010.8
20260509145104 71 82 3.0 7.0 0.00 0.25 0.01 80 1010.7
20260509144604 70 115 4.0 8.0 0.00 0.25 0.01 80 1010.6
20260509144105 70 103 4.0 8.0 0.00 0.25 0.01 83 1010.5
20260509143605 70 116 6.0 8.0 0.00 0.25 0.01 83 1010.6
20260509143104 70 98 3.0 6.0 0.00 0.25 0.01 86 1010.6
20260509142605 69 86 1.0 3.0 0.00 0.25 0.01 90 1010.7
20260509142105 68 47 0.0 0.0 0.00 0.25 0.01 91 1010.8
20260509141605 67 110 0.0 0.0 0.00 0.25 0.01 94 1010.7
20260509141105 66 153 0.0 2.0 0.00 0.25 0.01 95 1010.7
20260509140106 64 188 1.0 2.0 0.00 0.25 0.01 96 1010.8
20260509135605 64 188 1.0 2.0 0.00 0.25 0.01 97 1010.8
20260509134605 63 321 0.0 0.0 0.00 0.25 0.01 97 1010.8
20260509134105 63 321 0.0 0.0 0.00 0.25 0.01 98 1010.8
20260509133105 62 321 0.0 0.0 0.00 0.25 0.01 98 1010.6
20260509132605 62 321 0.0 0.0 0.00 0.25 0.01 98 1010.5
20260509132105 61 321 0.0 0.0 0.00 0.25 0.01 98 1010.5
20260509131604 61 321 0.0 1.0 0.00 0.25 0.01 98 1010.4
20260509131105 60 321 0.0 1.0 0.00 0.25 0.01 98 1010.3
20260509130605 60 321 0.0 1.0 0.00 0.25 0.01 98 1010.2
20260509130104 59 320 0.0 0.0 0.00 0.25 0.01 98 1010.2
20260509125104 58 320 0.0 1.0 0.00 0.25 0.01 98 1010.2
20260509124604 58 319 0.0 1.0 0.00 0.25 0.01 98 1010.2
20260509123605 56 319 0.0 0.0 0.00 0.25 0.01 98 1010.0
20260509123104 55 319 0.0 0.0 0.00 0.25 0.01 98 1010.0
20260509122605 54 319 0.0 0.0 0.00 0.25 0.01 98 1010.0
20260509122105 54 319 0.0 0.0 0.00 0.25 0.01 97 1009.9
20260509121604 54 319 0.0 0.0 0.00 0.25 0.01 97 1010.0
20260509121105 54 319 0.0 0.0 0.00 0.25 0.01 97 1010.0
20260509120105 54 319 0.0 0.0 0.00 0.25 0.01 96 1009.9
20260509115605 54 319 0.0 0.0 0.00 0.25 0.01 96 1009.8
20260509115105 54 319 0.0 0.0 0.00 0.25 0.01 96 1009.7
20260509114605 54 319 0.0 0.0 0.00 0.25 0.01 96 1009.7
20260509114105 54 319 0.0 0.0 0.00 0.25 0.01 96 1009.8
20260509113605 54 319 0.0 0.0 0.00 0.25 0.01 97 1009.7
20260509112605 54 319 0.0 0.0 0.00 0.25 0.01 96 1009.5
20260509112105 54 319 0.0 0.0 0.00 0.25 0.01 96 1009.4
20260509111605 54 319 0.0 1.0 0.00 0.25 0.01 95 1009.3
20260509110105 55 319 0.0 0.0 0.01 0.25 0.01 96 1009.1
20260509105104 55 319 0.0 0.0 0.01 0.25 0.01 96 1009.2
20260509104605 55 319 0.0 0.0 0.01 0.25 0.01 96 1009.3
20260509103605 56 319 0.0 0.0 0.01 0.25 0.01 96 1009.3
20260509103105 56 319 0.0 0.0 0.01 0.25 0.01 96 1009.4
20260509102605 56 319 0.0 0.0 0.01 0.25 0.01 96 1009.3
20260509101604 56 319 0.0 0.0 0.01 0.25 0.01 96 1009.4
20260509101104 56 319 0.0 0.0 0.01 0.25 0.01 96 1009.5
20260509100605 56 319 0.0 0.0 0.01 0.25 0.01 96 1009.7
20260509100105 57 319 0.0 1.0 0.00 0.24 0.00 96 1009.8
20260509095104 57 319 0.0 3.0 0.00 0.24 0.00 96 1009.8
20260509094605 57 310 2.0 3.0 0.00 0.24 0.00 96 1009.9
20260509094105 57 275 1.0 3.0 0.00 0.24 0.00 96 1010.0
20260509093604 56 302 0.0 2.0 0.00 0.24 0.00 96 1010.0
20260509093104 56 300 0.0 2.0 0.00 0.24 0.00 94 1010.0
20260509091604 57 256 0.0 0.0 0.00 0.24 0.00 96 1009.8
20260509091104 57 256 0.0 0.0 0.00 0.24 0.00 96 1009.7
20260509090605 56 256 0.0 0.0 0.00 0.24 0.00 96 1009.7
20260509090105 56 256 0.0 0.0 0.00 0.24 0.00 96 1009.8
20260509085604 56 256 0.0 2.0 0.00 0.24 0.00 96 1009.8
20260509085105 55 256 0.0 3.0 0.00 0.24 0.00 95 1010.0
20260509084605 55 256 1.0 3.0 0.00 0.24 0.00 94 1009.9
20260509084104 56 267 0.0 3.0 0.00 0.24 0.00 94 1009.8
20260509083604 56 265 1.0 2.0 0.00 0.24 0.00 94 1009.7
20260509082605 56 28 0.0 0.0 0.00 0.24 0.00 94 1009.7
20260509082105 57 28 0.0 0.0 0.00 0.24 0.00 93 1009.7
20260509081604 58 27 0.0 0.0 0.00 0.24 0.00 94 1009.7
20260509080605 58 27 0.0 2.0 0.00 0.24 0.00 95 1009.7
20260509080105 58 27 0.0 3.0 0.00 0.24 0.00 95 1009.8
20260509075604 58 27 2.0 3.0 0.00 0.24 0.00 95 1010.0
20260509075104 58 91 0.0 0.0 0.00 0.24 0.00 94 1010.0
20260509074605 58 91 0.0 0.0 0.00 0.24 0.00 94 1010.0
20260509073604 59 342 0.0 0.0 0.00 0.24 0.00 94 1010.1
20260509072605 59 342 0.0 0.0 0.00 0.24 0.00 95 1010.2
20260509072105 59 342 0.0 2.0 0.00 0.24 0.00 95 1010.2
20260509071604 59 342 0.0 3.0 0.00 0.24 0.00 95 1010.2
20260509071104 59 342 1.0 3.0 0.00 0.24 0.00 94 1010.3
20260509070105 60 261 0.0 0.0 0.00 0.24 0.00 93 1010.3
20260509065604 60 261 0.0 0.0 0.00 0.24 0.00 94 1010.4
20260509065105 60 261 0.0 0.0 0.00 0.24 0.00 94 1010.3
20260509064605 60 305 0.0 3.0 0.00 0.24 0.00 94 1010.2
20260509064104 60 305 0.0 3.0 0.00 0.24 0.00 94 1010.3
20260509063604 60 148 0.0 3.0 0.00 0.24 0.00 94 1010.2
20260509062605 60 77 0.0 3.0 0.00 0.24 0.00 93 1010.4
20260509062104 60 77 1.0 3.0 0.00 0.24 0.00 92 1010.6
20260509061105 60 77 0.0 1.0 0.00 0.24 0.00 91 1010.4
20260509060605 60 77 0.0 1.0 0.00 0.24 0.00 91 1010.5
20260509060104 61 77 0.0 0.0 0.00 0.24 0.00 92 1010.5
20260509055604 61 77 0.0 0.0 0.00 0.24 0.00 92 1010.4
20260509054605 61 77 0.0 0.0 0.00 0.24 0.00 91 1010.3
20260509054104 61 77 0.0 2.0 0.00 0.24 0.00 90 1010.4
20260509053605 62 77 0.0 2.0 0.00 0.24 0.00 89 1010.3
20260509053105 62 77 0.0 2.0 0.00 0.24 0.00 89 1010.2
20260509052605 63 77 0.0 2.0 0.00 0.24 0.00 90 1010.3
20260509052104 63 77 0.0 2.0 0.00 0.24 0.00 90 1010.3
20260509051604 63 94 1.0 3.0 0.00 0.24 0.00 90 1010.3
20260509050604 63 99 2.0 3.0 0.00 0.24 0.00 90 1010.3
20260509050104 63 69 2.0 5.0 0.00 0.24 0.00 91 1010.2
20260509045605 63 79 2.0 5.0 0.00 0.24 0.24 91 1010.3
20260509044604 63 80 2.0 5.0 0.00 0.24 0.24 91 1010.4
20260509044104 63 98 2.0 5.0 0.00 0.24 0.24 92 1010.3
20260509043105 63 83 2.0 5.0 0.00 0.24 0.24 92 1010.3
20260509042605 63 47 2.0 8.0 0.00 0.24 0.24 92 1010.3
20260509042104 63 87 5.0 8.0 0.00 0.24 0.24 93 1010.2
20260509041604 63 83 3.0 7.0 0.00 0.24 0.24 93 1010.0
20260509041104 62 79 2.0 5.0 0.00 0.24 0.24 92 1010.2
20260509040604 62 75 3.0 5.0 0.00 0.24 0.24 92 1010.0
20260509040104 62 248 1.0 3.0 0.00 0.24 0.24 91 1009.7
20260509035604 63 192 0.0 5.0 0.00 0.24 0.24 90 1009.6
20260509035105 63 142 4.0 5.0 0.00 0.24 0.24 90 1009.7
20260509034604 63 117 0.0 2.0 0.00 0.24 0.24 88 1009.5
20260509034104 64 117 0.0 1.0 0.00 0.24 0.24 88 1009.5
20260509032604 64 72 1.0 3.0 0.00 0.24 0.24 87 1009.1
20260509032104 64 43 0.0 3.0 0.00 0.24 0.24 87 1009.1
20260509031604 64 39 1.0 3.0 0.00 0.24 0.24 87 1009.0
20260509031105 65 19 0.0 3.0 0.00 0.24 0.24 87 1008.8
20260509030604 65 47 1.0 3.0 0.00 0.24 0.24 87 1008.7
20260509030104 65 34 2.0 3.0 0.00 0.24 0.24 87 1008.6
20260509025604 65 157 0.0 3.0 0.00 0.24 0.24 87 1008.4
20260509025104 65 157 1.0 3.0 0.00 0.24 0.24 88 1008.3
20260509024605 65 153 2.0 5.0 0.00 0.24 0.24 88 1008.2
20260509023604 65 161 2.0 6.0 0.00 0.24 0.24 87 1008.0
20260509023104 65 175 3.0 7.0 0.00 0.24 0.24 87 1008.0
20260509021104 65 187 5.0 7.0 0.00 0.24 0.24 87 1007.8
20260509020604 65 166 4.0 7.0 0.00 0.24 0.24 88 1007.7
20260509020105 65 166 3.0 7.0 0.00 0.24 0.24 88 1007.7
20260509015104 65 204 0.0 0.0 0.00 0.24 0.24 86 1007.4
20260509014604 66 203 0.0 0.0 0.00 0.24 0.24 85 1007.3
20260509014105 66 203 0.0 3.0 0.00 0.24 0.24 85 1007.2
20260509013104 67 203 1.0 3.0 0.00 0.24 0.24 85 1006.8
20260509012604 67 173 1.0 5.0 0.00 0.24 0.24 85 1006.8
20260509012104 67 173 2.0 6.0 0.00 0.24 0.24 85 1006.8
20260509011605 67 174 2.0 6.0 0.00 0.24 0.24 85 1006.8
20260509011104 67 156 3.0 8.0 0.00 0.24 0.24 84 1006.9
20260509010604 68 140 4.0 10.0 0.00 0.24 0.24 85 1006.9
20260509010105 68 160 6.0 10.0 0.00 0.24 0.24 85 1006.9
20260509005605 68 151 5.0 7.0 0.00 0.24 0.24 85 1006.8
20260509005104 68 144 3.0 13.0 0.00 0.24 0.24 84 1006.6
20260509004604 69 181 6.0 13.0 0.00 0.24 0.24 84 1006.5
20260509004104 70 167 9.0 13.0 0.00 0.24 0.24 82 1006.5
20260509003605 71 159 5.0 6.0 0.00 0.24 0.24 83 1006.3
20260509003104 71 236 0.0 3.0 0.00 0.24 0.24 81 1006.0
20260509002604 70 236 0.0 5.0 0.00 0.24 0.24 81 1005.9
20260509002105 70 200 3.0 7.0 0.00 0.24 0.24 82 1005.7
20260509001605 70 199 3.0 9.0 0.00 0.24 0.24 82 1005.6
20260509000604 71 175 6.0 12.0 0.00 0.24 0.24 85 1005.3
20260509000104 71 169 7.0 12.0 0.00 0.24 0.24 84 1005.2
20260508235604 71 169 8.0 12.0 0.00 0.24 0.24 85 1005.3
20260508234604 70 150 6.0 9.0 0.00 0.24 0.24 85 1005.4
20260508234104 70 150 6.0 9.0 0.11 0.24 0.24 87 1005.3
20260508233605 69 149 6.0 8.0 0.24 0.24 0.24 87 1005.1
20260508233104 68 153 3.0 7.0 0.24 0.24 0.24 87 1005.2
20260508232604 68 196 2.0 9.0 0.24 0.24 0.24 88 1005.0
20260508231604 67 201 3.0 9.0 0.24 0.24 0.24 86 1005.6
20260508230604 66 343 0.0 5.0 0.24 0.24 0.24 84 1005.8
20260508230105 66 56 2.0 5.0 0.24 0.24 0.24 84 1005.7
20260508225104 66 312 3.0 18.0 0.24 0.24 0.24 83 1006.0
20260508224604 66 342 6.0 21.0 0.24 0.24 0.24 81 1006.5
20260508224104 69 6 12.0 26.0 0.13 0.13 0.13 78 1006.6
20260508223604 78 304 14.0 26.0 0.00 0.00 0.00 60 1006.5
20260508223104 82 164 1.0 12.0 0.00 0.00 0.00 50 1004.9
20260508222604 82 170 5.0 13.0 0.00 0.00 0.00 49 1004.1
20260508222105 82 190 9.0 13.0 0.00 0.00 0.00 48 1004.2
20260508221604 82 173 8.0 15.0 0.00 0.00 0.00 48 1004.5
20260508221104 83 192 7.0 15.0 0.00 0.00 0.00 47 1004.8
20260508220604 83 188 9.0 14.0 0.00 0.00 0.00 47 1004.5
20260508215604 84 191 9.0 18.0 0.00 0.00 0.00 47 1004.7
20260508215104 85 200 8.0 18.0 0.00 0.00 0.00 46 1004.8
20260508214604 86 186 10.0 18.0 0.00 0.00 0.00 45 1004.9
20260508214104 85 211 7.0 15.0 0.00 0.00 0.00 46 1005.1
20260508213104 86 203 8.0 18.0 0.00 0.00 0.00 46 1005.5
20260508212604 85 203 14.0 18.0 0.00 0.00 0.00 46 1005.7
20260508212104 86 188 9.0 17.0 0.00 0.00 0.00 46 1005.8
20260508211604 86 196 12.0 17.0 0.00 0.00 0.00 46 1005.9
20260508211104 86 200 10.0 17.0 0.00 0.00 0.00 46 1006.1
20260508210604 85 197 5.0 17.0 0.00 0.00 0.00 47 1006.1
20260508205105 84 177 6.0 16.0 0.00 0.00 0.00 49 1006.5
20260508204604 85 210 11.0 20.0 0.00 0.00 0.00 48 1006.6
20260508203604 84 196 7.0 17.0 0.00 0.00 0.00 50 1006.7
20260508202604 84 206 10.0 16.0 0.00 0.00 0.00 50 1006.9
20260508202104 84 195 10.0 20.0 0.00 0.00 0.00 50 1007.0
20260508201604 84 223 10.0 20.0 0.00 0.00 0.00 50 1007.1
20260508195604 83 200 9.0 14.0 0.00 0.00 0.00 52 1007.3
20260508195104 83 192 10.0 17.0 0.00 0.00 0.00 51 1007.4
20260508194603 83 203 12.0 17.0 0.00 0.00 0.00 52 1007.3
20260508194104 83 214 9.0 16.0 0.00 0.00 0.00 51 1007.5
20260508193604 84 201 10.0 16.0 0.00 0.00 0.00 52 1007.5
20260508192604 82 226 9.0 16.0 0.00 0.00 0.00 52 1007.5
20260508192104 83 209 9.0 17.0 0.00 0.00 0.00 51 1007.6
20260508191605 82 182 12.0 18.0 0.00 0.00 0.00 52 1007.7
20260508190104 82 226 12.0 20.0 0.00 0.00 0.00 51 1007.8
20260508185604 81 201 10.0 21.0 0.00 0.00 0.00 52 1007.8
20260508185105 81 203 14.0 21.0 0.00 0.00 0.00 53 1007.9
20260508184604 81 213 13.0 21.0 0.00 0.00 0.00 52 1008.0
20260508184104 82 216 12.0 18.0 0.00 0.00 0.00 52 1008.1
20260508183604 81 200 13.0 20.0 0.00 0.00 0.00 53 1008.1
20260508182604 81 196 14.0 20.0 0.00 0.00 0.00 52 1008.2
20260508181604 80 224 13.0 21.0 0.00 0.00 0.00 54 1008.4
20260508180604 80 186 15.0 24.0 0.00 0.00 0.00 55 1008.6
20260508180105 79 210 12.0 24.0 0.00 0.00 0.00 54 1008.7
20260508175604 79 194 12.0 24.0 0.00 0.00 0.00 54 1008.8
20260508175104 79 188 13.0 20.0 0.00 0.00 0.00 54 1008.9
20260508174604 78 213 12.0 20.0 0.00 0.00 0.00 54 1008.9
20260508173104 77 194 13.0 20.0 0.00 0.00 0.00 55 1009.2
20260508172104 78 219 13.0 22.0 0.00 0.00 0.00 54 1009.3
20260508171604 77 180 12.0 22.0 0.00 0.00 0.00 55 1009.4
20260508171104 77 213 14.0 21.0 0.00 0.00 0.00 55 1009.5
20260508170604 77 203 13.0 21.0 0.00 0.00 0.00 53 1009.7
20260508170104 77 196 13.0 21.0 0.00 0.00 0.00 55 1009.9
20260508165605 76 212 12.0 22.0 0.00 0.00 0.00 56 1010.0
20260508165104 75 200 15.0 22.0 0.00 0.00 0.00 55 1010.0
20260508164104 76 198 14.0 23.0 0.00 0.00 0.00 54 1010.2
20260508163104 74 213 13.0 22.0 0.00 0.00 0.00 53 1010.5
20260508162604 75 211 15.0 22.0 0.00 0.00 0.00 53 1010.5
20260508162104 76 215 13.0 21.0 0.00 0.00 0.00 52 1010.6
20260508161605 75 192 13.0 21.0 0.00 0.00 0.00 53 1010.6
20260508161104 75 198 15.0 21.0 0.00 0.00 0.00 53 1010.6